星链-32196 (STARLINK-32196)

导读 | 豆包AI

STARLINK-32196是美国SpaceX公司星链星座的卫星,于2024年8月12日发射升空,属星链第二代星座部署阶段的卫星。星链项目旨在构建低轨卫星互联网星座,为全球尤其是偏远地区提供高速宽带服务,目前星链已拓展至航空、航运及应急通信等领域,截至2024年底注册用户达500万,STARLINK-32196将助力完善星座全球覆盖与服务能力。

Basic Information
目录编号:
60430
目录名称:
STARLINK-32196
国际标识:
2024-144F
轨道中心:
EARTH
卫星名称:
星链-32196 (STARLINK-32196)
卫星全名:
星链-32196 (STARLINK-32196)
卫星状态:
在轨 (已飞行580 天)
发射日期:
2024-08-12 UTC
国别 :
美国 (US)
星等 :
--
Orbit Information
数据来源 国际轨道数据 AOE轨道数据
星历时间 2026-03-14T23:00:04+0800
1天前
查看轨道信息
2026-03-12T05:00:00+0800
3天前
查看轨道信息
半长轴 6853.343km 6853.349km
偏心率 0.000105 0.0001268
轨道倾角 53.161° 53.160°
近地点辐角 51.694° 122.496°
升交点赤经 194.283° 207.065°
平近点角 308.416° 199.978°
近地点 474.486km 474.342km
远地点 475.926km 476.082km
周期 94.105分钟 94.105分钟
每日圈数 15.302032 15.302011
Detailed Information
卫星平台:
Starlink v2.0 mini
运营商:
太空探索技术公司
运营商所在国:
美国
制造商(研发单位):
太空探索技术公司
制造商所在国:
美国
使用方式:
暂无
Satellite Introduction
星链(Starlink)计划是由太空探索技术公司(SpaceX)提出的一个巨型低轨卫星互联网星座项目,计划在2019年至2024年间在太空搭建由约1.2万颗卫星组成的“星链”网络,其中1584颗将部署在地球上空550千米处的近地轨道,并从2020年开始工作。该卫星仍在工作。
2D Orbit Map
3D Orbit Map
Orbit Altitude Analysis Chart
Orbit Inclination Analysis Chart
Orbit Comprehensive Analysis Chart
View Comprehensive Chart